TimeEST,TemperatureF,Dew PointF,Humidity,Sea Level PressureIn,VisibilityMPH,Wind Direction,Wind SpeedMPH,Gust SpeedMPH,PrecipitationIn,Events,Conditions,WindDirDegrees,DateUTC
12:53 AM,37.9,30.0,73,30.17,10.0,North,6.9,-,N/A,,Clear,360,2012-12-12 05:53:00
1:53 AM,37.0,30.0,76,30.18,10.0,North,4.6,-,N/A,,Clear,360,2012-12-12 06:53:00
2:53 AM,37.0,30.0,76,30.19,10.0,North,5.8,-,N/A,,Clear,360,2012-12-12 07:53:00
3:53 AM,37.0,28.9,73,30.19,10.0,North,8.1,-,N/A,,Clear,360,2012-12-12 08:53:00
4:53 AM,37.0,28.9,73,30.20,10.0,North,5.8,-,N/A,,Partly Cloudy,360,2012-12-12 09:53:00
5:53 AM,36.0,28.9,76,30.20,10.0,North,6.9,-,N/A,,Clear,10,2012-12-12 10:53:00
6:53 AM,36.0,28.9,76,30.21,10.0,North,4.6,-,N/A,,Clear,360,2012-12-12 11:53:00
7:53 AM,36.0,28.9,76,30.23,10.0,North,3.5,-,N/A,,Clear,360,2012-12-12 12:53:00
8:53 AM,37.0,28.9,73,30.24,10.0,North,6.9,-,N/A,,Clear,10,2012-12-12 13:53:00
9:53 AM,42.1,30.9,65,30.24,10.0,NNE,10.4,-,N/A,,Clear,20,2012-12-12 14:53:00
10:53 AM,43.0,30.9,62,30.25,10.0,North,8.1,-,N/A,,Clear,360,2012-12-12 15:53:00
11:53 AM,46.0,32.0,58,30.23,10.0,Variable,5.8,-,N/A,,Clear,0,2012-12-12 16:53:00
12:53 PM,48.0,33.1,56,30.23,10.0,NNW,8.1,-,N/A,,Clear,340,2012-12-12 17:53:00
1:53 PM,50.0,34.0,54,30.20,10.0,North,6.9,-,N/A,,Clear,10,2012-12-12 18:53:00
2:53 PM,51.1,34.0,52,30.19,10.0,North,4.6,-,N/A,,Clear,360,2012-12-12 19:53:00
3:53 PM,52.0,34.0,50,30.20,10.0,North,8.1,-,N/A,,Partly Cloudy,360,2012-12-12 20:53:00
4:53 PM,50.0,33.1,52,30.22,10.0,NNE,9.2,-,N/A,,Mostly Cloudy,20,2012-12-12 21:53:00
5:53 PM,48.0,32.0,54,30.24,10.0,North,6.9,-,N/A,,Overcast,360,2012-12-12 22:53:00
6:53 PM,46.9,28.0,48,30.25,10.0,North,9.2,-,N/A,,Overcast,350,2012-12-12 23:53:00
7:53 PM,44.1,28.0,53,30.26,10.0,North,4.6,-,N/A,,Clear,350,2012-12-13 00:53:00
8:53 PM,39.9,28.9,65,30.24,10.0,NNE,3.5,-,N/A,,Clear,30,2012-12-13 01:53:00
9:53 PM,37.9,28.9,70,30.24,10.0,Calm,Calm,-,N/A,,Clear,0,2012-12-13 02:53:00
10:53 PM,42.1,28.9,60,30.27,10.0,NNW,5.8,-,N/A,,Mostly Cloudy,340,2012-12-13 03:53:00
11:53 PM,42.1,28.9,60,30.27,10.0,NNW,6.9,-,N/A,,Overcast,340,2012-12-13 04:53:00